owner,sensor,date,latitude,longitude,vertical_datum,mass_concentration_of_oxygen_in_sea_water,qcFlag 
DISL,ioos:station:DISL:CATA:1,2015-03-01T00:00:00Z,30.3085,-88.1395,2.283,11.63,1111122 
DISL,ioos:station:DISL:CATA:1,2015-03-01T00:30:00Z,30.3085,-88.1395,2.291,11.39,1111122 
DISL,ioos:station:DISL:CATA:1,2015-03-01T01:00:00Z,30.3085,-88.1395,2.288,10.97,1111122 
DISL,ioos:station:DISL:CATA:1,2015-03-01T01:30:00Z,30.3085,-88.1395,2.286,10.78,1111122 
DISL,ioos:station:DISL:CATA:1,2015-03-01T02:00:00Z,30.3085,-88.1395,2.298,10.47,1111122 
DISL,ioos:station:DISL:CATA:1,2015-03-01T02:30:00Z,30.3085,-88.1395,2.289,10.39,1111122 
DISL,ioos:station:DISL:CATA:1,2015-03-01T03:00:00Z,30.3085,-88.1395,2.275,10.56,1111122 
DISL,ioos:station:DISL:CATA:1,2015-03-01T03:30:00Z,30.3085,-88.1395,2.265,10.65,1111122 
DISL,ioos:station:DISL:CATA:1,2015-03-01T04:00:00Z,30.3085,-88.1395,2.235,10.65,1111122 
DISL,ioos:station:DISL:CATA:1,2015-03-01T04:30:00Z,30.3085,-88.1395,2.205,10.96,1111122 
DISL,ioos:station:DISL:CATA:1,2015-03-01T05:00:00Z,30.3085,-88.1395,2.163,11.03,1111122 
DISL,ioos:station:DISL:CATA:1,2015-03-01T05:30:00Z,30.3085,-88.1395,2.109,10.9,1111122 
DISL,ioos:station:DISL:CATA:1,2015-03-01T06:00:00Z,30.3085,-88.1395,2.084,10.96,1111122 
DISL,ioos:station:DISL:CATA:1,2015-03-01T06:30:00Z,30.3085,-88.1395,2.043,10.95,1111122 
DISL,ioos:station:DISL:CATA:1,2015-03-01T07:00:00Z,30.3085,-88.1395,2.011,10.83,1111122 
DISL,ioos:station:DISL:CATA:1,2015-03-01T07:30:00Z,30.3085,-88.1395,1.985,10.68,1111122 
DISL,ioos:station:DISL:CATA:1,2015-03-01T08:00:00Z,30.3085,-88.1395,1.958,10.64,1111122 
DISL,ioos:station:DISL:CATA:1,2015-03-01T08:30:00Z,30.3085,-88.1395,1.942,10.83,1111122 
DISL,ioos:station:DISL:CATA:1,2015-03-01T09:00:00Z,30.3085,-88.1395,1.921,11.01,1111122 
DISL,ioos:station:DISL:CATA:1,2015-03-01T09:30:00Z,30.3085,-88.1395,1.916,11.07,1111122 
DISL,ioos:station:DISL:CATA:1,2015-03-01T10:00:00Z,30.3085,-88.1395,1.92,11.08,1111122 
DISL,ioos:station:DISL:CATA:1,2015-03-01T10:30:00Z,30.3085,-88.1395,1.915,11.04,1111122 
DISL,ioos:station:DISL:CATA:1,2015-03-01T11:00:00Z,30.3085,-88.1395,1.906,11.09,1111122 
DISL,ioos:station:DISL:CATA:1,2015-03-01T11:30:00Z,30.3085,-88.1395,1.896,11.2,1111122 
DISL,ioos:station:DISL:CATA:1,2015-03-01T12:00:00Z,30.3085,-88.1395,1.9,11.15,1111122 
DISL,ioos:station:DISL:CATA:1,2015-03-01T12:30:00Z,30.3085,-88.1395,1.907,11.08,1111122 
DISL,ioos:station:DISL:CATA:1,2015-03-01T13:00:00Z,30.3085,-88.1395,1.915,10.97,1111122 
DISL,ioos:station:DISL:CATA:1,2015-03-01T13:30:00Z,30.3085,-88.1395,1.926,10.85,1111122 
DISL,ioos:station:DISL:CATA:1,2015-03-01T14:00:00Z,30.3085,-88.1395,1.949,10.83,1111122 
DISL,ioos:station:DISL:CATA:1,2015-03-01T14:30:00Z,30.3085,-88.1395,1.982,10.79,1111122 
DISL,ioos:station:DISL:CATA:1,2015-03-01T15:00:00Z,30.3085,-88.1395,1.999,10.81,1111122 
DISL,ioos:station:DISL:CATA:1,2015-03-01T15:30:00Z,30.3085,-88.1395,2.016,10.83,1111122 
DISL,ioos:station:DISL:CATA:1,2015-03-01T16:00:00Z,30.3085,-88.1395,2.038,10.82,1111122 
DISL,ioos:station:DISL:CATA:1,2015-03-01T16:30:00Z,30.3085,-88.1395,2.061,10.77,1111122 
DISL,ioos:station:DISL:CATA:1,2015-03-01T17:00:00Z,30.3085,-88.1395,2.074,10.76,1111122 
DISL,ioos:station:DISL:CATA:1,2015-03-01T17:30:00Z,30.3085,-88.1395,2.076,10.69,1111122 
DISL,ioos:station:DISL:CATA:1,2015-03-01T18:00:00Z,30.3085,-88.1395,2.101,10.64,1111122 
DISL,ioos:station:DISL:CATA:1,2015-03-01T18:30:00Z,30.3085,-88.1395,2.119,10.66,1111122 
DISL,ioos:station:DISL:CATA:1,2015-03-01T19:00:00Z,30.3085,-88.1395,2.132,10.6,1111122 
DISL,ioos:station:DISL:CATA:1,2015-03-01T19:30:00Z,30.3085,-88.1395,2.14,10.61,1111122 
DISL,ioos:station:DISL:CATA:1,2015-03-01T20:00:00Z,30.3085,-88.1395,2.164,10.65,1111122 
DISL,ioos:station:DISL:CATA:1,2015-03-01T20:30:00Z,30.3085,-88.1395,2.178,10.69,1111122 
DISL,ioos:station:DISL:CATA:1,2015-03-01T21:00:00Z,30.3085,-88.1395,2.199,10.73,1111122 
DISL,ioos:station:DISL:CATA:1,2015-03-01T21:30:00Z,30.3085,-88.1395,2.223,10.7,1111122 
DISL,ioos:station:DISL:CATA:1,2015-03-01T22:00:00Z,30.3085,-88.1395,2.24,10.66,1111122 
DISL,ioos:station:DISL:CATA:1,2015-03-01T22:30:00Z,30.3085,-88.1395,2.261,10.33,1111122 
DISL,ioos:station:DISL:CATA:1,2015-03-01T23:00:00Z,30.3085,-88.1395,2.267,10.3,1111122 
DISL,ioos:station:DISL:CATA:1,2015-03-01T23:30:00Z,30.3085,-88.1395,2.278,10.45,1111122 
DISL,ioos:station:DISL:CATA:1,2015-03-02T00:00:00Z,30.3085,-88.1395,2.302,10.49,1111122 
DISL,ioos:station:DISL:CATA:1,2015-03-02T00:30:00Z,30.3085,-88.1395,2.319,10.4,1111122 
DISL,ioos:station:DISL:CATA:1,2015-03-02T01:00:00Z,30.3085,-88.1395,2.316,10.46,1111122 
DISL,ioos:station:DISL:CATA:1,2015-03-02T01:30:00Z,30.3085,-88.1395,2.311,10.51,1111122 
DISL,ioos:station:DISL:CATA:1,2015-03-02T02:00:00Z,30.3085,-88.1395,2.314,10.35,1111122 
DISL,ioos:station:DISL:CATA:1,2015-03-02T02:30:00Z,30.3085,-88.1395,2.306,10.22,1111122 
DISL,ioos:station:DISL:CATA:1,2015-03-02T03:00:00Z,30.3085,-88.1395,2.29,9.9,1111122 
DISL,ioos:station:DISL:CATA:1,2015-03-02T03:30:00Z,30.3085,-88.1395,2.277,8.72,1111122 
DISL,ioos:station:DISL:CATA:1,2015-03-02T04:00:00Z,30.3085,-88.1395,2.263,9.37,1111122 
DISL,ioos:station:DISL:CATA:1,2015-03-02T04:30:00Z,30.3085,-88.1395,2.241,9.15,1111122 
DISL,ioos:station:DISL:CATA:1,2015-03-02T05:00:00Z,30.3085,-88.1395,2.213,10.09,1111122 
DISL,ioos:station:DISL:CATA:1,2015-03-02T05:30:00Z,30.3085,-88.1395,2.188,10.81,1111122 
DISL,ioos:station:DISL:CATA:1,2015-03-02T06:00:00Z,30.3085,-88.1395,2.163,10.87,1111122 
DISL,ioos:station:DISL:CATA:1,2015-03-02T06:30:00Z,30.3085,-88.1395,2.131,10.85,1111122 
DISL,ioos:station:DISL:CATA:1,2015-03-02T07:00:00Z,30.3085,-88.1395,2.091,10.95,1111122 
DISL,ioos:station:DISL:CATA:1,2015-03-02T07:30:00Z,30.3085,-88.1395,2.049,10.93,1111122 
DISL,ioos:station:DISL:CATA:1,2015-03-02T08:00:00Z,30.3085,-88.1395,2.012,10.92,1111122 
DISL,ioos:station:DISL:CATA:1,2015-03-02T08:30:00Z,30.3085,-88.1395,1.991,10.93,1111122 
DISL,ioos:station:DISL:CATA:1,2015-03-02T09:00:00Z,30.3085,-88.1395,1.972,10.93,1111122 
DISL,ioos:station:DISL:CATA:1,2015-03-02T09:30:00Z,30.3085,-88.1395,1.942,10.87,1111122 
DISL,ioos:station:DISL:CATA:1,2015-03-02T10:00:00Z,30.3085,-88.1395,1.928,10.84,1111122 
DISL,ioos:station:DISL:CATA:1,2015-03-02T10:30:00Z,30.3085,-88.1395,1.923,10.87,1111122 
DISL,ioos:station:DISL:CATA:1,2015-03-02T11:00:00Z,30.3085,-88.1395,1.936,10.85,1111122 
DISL,ioos:station:DISL:CATA:1,2015-03-02T11:30:00Z,30.3085,-88.1395,1.958,10.8,1111122 
DISL,ioos:station:DISL:CATA:1,2015-03-02T12:00:00Z,30.3085,-88.1395,1.963,10.76,1111122 
DISL,ioos:station:DISL:CATA:1,2015-03-02T12:30:00Z,30.3085,-88.1395,1.981,10.67,1111122 
DISL,ioos:station:DISL:CATA:1,2015-03-02T13:00:00Z,30.3085,-88.1395,1.996,10.6,1111122 
DISL,ioos:station:DISL:CATA:1,2015-03-02T13:30:00Z,30.3085,-88.1395,1.987,10.49,1111122 
DISL,ioos:station:DISL:CATA:1,2015-03-02T14:00:00Z,30.3085,-88.1395,1.988,10.58,1111122 
DISL,ioos:station:DISL:CATA:1,2015-03-02T14:30:00Z,30.3085,-88.1395,1.981,10.54,1111122 
DISL,ioos:station:DISL:CATA:1,2015-03-02T15:00:00Z,30.3085,-88.1395,1.957,10.34,1111122 
DISL,ioos:station:DISL:CATA:1,2015-03-02T15:30:00Z,30.3085,-88.1395,1.963,10.58,1111122 
DISL,ioos:station:DISL:CATA:1,2015-03-02T16:00:00Z,30.3085,-88.1395,1.953,10.6,1111122 
DISL,ioos:station:DISL:CATA:1,2015-03-02T16:30:00Z,30.3085,-88.1395,1.975,10.65,1111122 
DISL,ioos:station:DISL:CATA:1,2015-03-02T17:00:00Z,30.3085,-88.1395,2.006,10.91,1111122 
DISL,ioos:station:DISL:CATA:1,2015-03-02T17:30:00Z,30.3085,-88.1395,2.028,11.08,1111122 
DISL,ioos:station:DISL:CATA:1,2015-03-02T18:00:00Z,30.3085,-88.1395,2.047,11.13,1111122 
DISL,ioos:station:DISL:CATA:1,2015-03-02T18:30:00Z,30.3085,-88.1395,2.061,10.98,1111122 
DISL,ioos:station:DISL:CATA:1,2015-03-02T19:00:00Z,30.3085,-88.1395,2.068,11.04,1111122 
DISL,ioos:station:DISL:CATA:1,2015-03-02T19:30:00Z,30.3085,-88.1395,2.077,10.88,1111122 
DISL,ioos:station:DISL:CATA:1,2015-03-02T20:00:00Z,30.3085,-88.1395,2.073,10.5,1111122 
DISL,ioos:station:DISL:CATA:1,2015-03-02T20:30:00Z,30.3085,-88.1395,2.078,9.8,1111122 
DISL,ioos:station:DISL:CATA:1,2015-03-02T21:00:00Z,30.3085,-88.1395,2.091,9.62,1111122 
DISL,ioos:station:DISL:CATA:1,2015-03-02T21:30:00Z,30.3085,-88.1395,2.103,8.96,1111122 
DISL,ioos:station:DISL:CATA:1,2015-03-02T22:00:00Z,30.3085,-88.1395,2.12,8.45,1111122 
DISL,ioos:station:DISL:CATA:1,2015-03-02T22:30:00Z,30.3085,-88.1395,2.135,8.22,1111122 
DISL,ioos:station:DISL:CATA:1,2015-03-02T23:00:00Z,30.3085,-88.1395,2.165,8.0,1111122 
DISL,ioos:station:DISL:CATA:1,2015-03-02T23:30:00Z,30.3085,-88.1395,2.184,8.16,1111122 
DISL,ioos:station:DISL:CATA:1,2015-03-03T00:00:00Z,30.3085,-88.1395,2.203,7.59,1111122 
DISL,ioos:station:DISL:CATA:1,2015-03-03T00:30:00Z,30.3085,-88.1395,2.218,7.43,1111122 
DISL,ioos:station:DISL:CATA:1,2015-03-03T01:00:00Z,30.3085,-88.1395,2.231,8.0,1111122 
DISL,ioos:station:DISL:CATA:1,2015-03-03T01:30:00Z,30.3085,-88.1395,2.239,8.4,1111122 
DISL,ioos:station:DISL:CATA:1,2015-03-03T02:00:00Z,30.3085,-88.1395,2.244,8.36,1111122 
DISL,ioos:station:DISL:CATA:1,2015-03-03T02:30:00Z,30.3085,-88.1395,2.249,8.17,1111122 
DISL,ioos:station:DISL:CATA:1,2015-03-03T03:00:00Z,30.3085,-88.1395,2.244,8.12,1111122 
DISL,ioos:station:DISL:CATA:1,2015-03-03T03:30:00Z,30.3085,-88.1395,2.243,7.68,1111122 
DISL,ioos:station:DISL:CATA:1,2015-03-03T04:00:00Z,30.3085,-88.1395,2.232,7.98,1111122 
DISL,ioos:station:DISL:CATA:1,2015-03-03T04:30:00Z,30.3085,-88.1395,2.219,7.99,1111122 
DISL,ioos:station:DISL:CATA:1,2015-03-03T05:00:00Z,30.3085,-88.1395,2.224,7.79,1111122 
DISL,ioos:station:DISL:CATA:1,2015-03-03T05:30:00Z,30.3085,-88.1395,2.203,7.39,1111122 
DISL,ioos:station:DISL:CATA:1,2015-03-03T06:00:00Z,30.3085,-88.1395,2.163,7.89,1111122 
DISL,ioos:station:DISL:CATA:1,2015-03-03T06:30:00Z,30.3085,-88.1395,2.134,7.85,1111122 
DISL,ioos:station:DISL:CATA:1,2015-03-03T07:00:00Z,30.3085,-88.1395,2.114,10.65,1111122 
DISL,ioos:station:DISL:CATA:1,2015-03-03T07:30:00Z,30.3085,-88.1395,2.087,11.16,1111122 
DISL,ioos:station:DISL:CATA:1,2015-03-03T08:00:00Z,30.3085,-88.1395,2.061,11.61,1111122 
DISL,ioos:station:DISL:CATA:1,2015-03-03T08:30:00Z,30.3085,-88.1395,2.032,11.71,1111122 
DISL,ioos:station:DISL:CATA:1,2015-03-03T09:00:00Z,30.3085,-88.1395,2.009,11.78,1111122 
DISL,ioos:station:DISL:CATA:1,2015-03-03T09:30:00Z,30.3085,-88.1395,1.984,11.82,1111122 
DISL,ioos:station:DISL:CATA:1,2015-03-03T10:00:00Z,30.3085,-88.1395,1.961,11.83,1111122 
DISL,ioos:station:DISL:CATA:1,2015-03-03T10:30:00Z,30.3085,-88.1395,1.951,11.77,1111122 
DISL,ioos:station:DISL:CATA:1,2015-03-03T11:00:00Z,30.3085,-88.1395,1.938,11.67,1111122 
DISL,ioos:station:DISL:CATA:1,2015-03-03T11:30:00Z,30.3085,-88.1395,1.927,11.59,1111122 
DISL,ioos:station:DISL:CATA:1,2015-03-03T12:00:00Z,30.3085,-88.1395,1.938,11.46,1111122 
DISL,ioos:station:DISL:CATA:1,2015-03-03T12:30:00Z,30.3085,-88.1395,1.951,11.32,1111122 
DISL,ioos:station:DISL:CATA:1,2015-03-03T13:00:00Z,30.3085,-88.1395,1.968,11.26,1111122 
DISL,ioos:station:DISL:CATA:1,2015-03-03T13:30:00Z,30.3085,-88.1395,1.983,11.16,1111122 
DISL,ioos:station:DISL:CATA:1,2015-03-03T14:00:00Z,30.3085,-88.1395,1.991,10.95,1111122 
DISL,ioos:station:DISL:CATA:1,2015-03-03T14:30:00Z,30.3085,-88.1395,1.996,10.93,1111122 
DISL,ioos:station:DISL:CATA:1,2015-03-03T15:00:00Z,30.3085,-88.1395,2.0,10.94,1111122 
DISL,ioos:station:DISL:CATA:1,2015-03-03T15:30:00Z,30.3085,-88.1395,2.001,10.83,1111122 
DISL,ioos:station:DISL:CATA:1,2015-03-03T16:00:00Z,30.3085,-88.1395,2.011,10.86,1111122 
DISL,ioos:station:DISL:CATA:1,2015-03-03T16:30:00Z,30.3085,-88.1395,2.014,10.9,1111122 
DISL,ioos:station:DISL:CATA:1,2015-03-03T17:00:00Z,30.3085,-88.1395,2.03,10.59,1111122 
DISL,ioos:station:DISL:CATA:1,2015-03-03T17:30:00Z,30.3085,-88.1395,2.051,10.34,1111122 
DISL,ioos:station:DISL:CATA:1,2015-03-03T18:00:00Z,30.3085,-88.1395,2.068,10.63,1111122 
DISL,ioos:station:DISL:CATA:1,2015-03-03T18:30:00Z,30.3085,-88.1395,2.082,10.87,1111122 
DISL,ioos:station:DISL:CATA:1,2015-03-03T19:00:00Z,30.3085,-88.1395,2.092,10.92,1111122 
DISL,ioos:station:DISL:CATA:1,2015-03-03T19:30:00Z,30.3085,-88.1395,2.088,10.08,1111122 
DISL,ioos:station:DISL:CATA:1,2015-03-03T20:00:00Z,30.3085,-88.1395,2.088,10.45,1111122 
DISL,ioos:station:DISL:CATA:1,2015-03-03T20:30:00Z,30.3085,-88.1395,2.092,10.07,1111122 
DISL,ioos:station:DISL:CATA:1,2015-03-03T21:00:00Z,30.3085,-88.1395,2.088,9.43,1111122 
DISL,ioos:station:DISL:CATA:1,2015-03-03T21:30:00Z,30.3085,-88.1395,2.089,9.4,1111122 
DISL,ioos:station:DISL:CATA:1,2015-03-03T22:00:00Z,30.3085,-88.1395,2.109,10.05,1111122 
DISL,ioos:station:DISL:CATA:1,2015-03-03T22:30:00Z,30.3085,-88.1395,2.123,10.5,1111122 
DISL,ioos:station:DISL:CATA:1,2015-03-03T23:00:00Z,30.3085,-88.1395,2.145,10.85,1111122 
DISL,ioos:station:DISL:CATA:1,2015-03-03T23:30:00Z,30.3085,-88.1395,2.179,11.16,1111122 
DISL,ioos:station:DISL:CATA:1,2015-03-04T00:00:00Z,30.3085,-88.1395,2.208,11.25,1111122 
DISL,ioos:station:DISL:CATA:1,2015-03-04T00:30:00Z,30.3085,-88.1395,2.24,10.91,1111122 
DISL,ioos:station:DISL:CATA:1,2015-03-04T01:00:00Z,30.3085,-88.1395,2.248,10.55,1111122 
DISL,ioos:station:DISL:CATA:1,2015-03-04T01:30:00Z,30.3085,-88.1395,2.274,10.31,1111122 
DISL,ioos:station:DISL:CATA:1,2015-03-04T02:00:00Z,30.3085,-88.1395,2.294,9.47,1111122 
DISL,ioos:station:DISL:CATA:1,2015-03-04T02:30:00Z,30.3085,-88.1395,2.302,9.57,1111122 
DISL,ioos:station:DISL:CATA:1,2015-03-04T03:00:00Z,30.3085,-88.1395,2.308,10.21,1111122 
DISL,ioos:station:DISL:CATA:1,2015-03-04T03:30:00Z,30.3085,-88.1395,2.301,9.73,1111122 
DISL,ioos:station:DISL:CATA:1,2015-03-04T04:00:00Z,30.3085,-88.1395,2.296,8.5,1111122 
DISL,ioos:station:DISL:CATA:1,2015-03-04T04:30:00Z,30.3085,-88.1395,2.283,8.07,1111122 
DISL,ioos:station:DISL:CATA:1,2015-03-04T05:00:00Z,30.3085,-88.1395,2.277,7.87,1111122 
DISL,ioos:station:DISL:CATA:1,2015-03-04T05:30:00Z,30.3085,-88.1395,2.263,8.18,1111122 
DISL,ioos:station:DISL:CATA:1,2015-03-04T06:00:00Z,30.3085,-88.1395,2.243,9.43,1111122 
DISL,ioos:station:DISL:CATA:1,2015-03-04T06:30:00Z,30.3085,-88.1395,2.234,10.23,1111122 
DISL,ioos:station:DISL:CATA:1,2015-03-04T07:00:00Z,30.3085,-88.1395,2.218,11.1,1111122 
DISL,ioos:station:DISL:CATA:1,2015-03-04T07:30:00Z,30.3085,-88.1395,2.196,11.14,1111122 
DISL,ioos:station:DISL:CATA:1,2015-03-04T08:00:00Z,30.3085,-88.1395,2.16,11.18,1111122 
DISL,ioos:station:DISL:CATA:1,2015-03-04T08:30:00Z,30.3085,-88.1395,2.13,11.13,1111122 
DISL,ioos:station:DISL:CATA:1,2015-03-04T09:00:00Z,30.3085,-88.1395,2.093,11.12,1111122 
DISL,ioos:station:DISL:CATA:1,2015-03-04T09:30:00Z,30.3085,-88.1395,2.06,11.09,1111122 
DISL,ioos:station:DISL:CATA:1,2015-03-04T10:00:00Z,30.3085,-88.1395,2.037,11.14,1111122 
DISL,ioos:station:DISL:CATA:1,2015-03-04T10:30:00Z,30.3085,-88.1395,2.014,11.2,1111122 
DISL,ioos:station:DISL:CATA:1,2015-03-04T11:00:00Z,30.3085,-88.1395,2.0,11.19,1111122 
DISL,ioos:station:DISL:CATA:1,2015-03-04T11:30:00Z,30.3085,-88.1395,1.991,11.17,1111122 
DISL,ioos:station:DISL:CATA:1,2015-03-04T12:00:00Z,30.3085,-88.1395,1.992,11.17,1111122 
DISL,ioos:station:DISL:CATA:1,2015-03-04T12:30:00Z,30.3085,-88.1395,2.005,11.18,1111122 
DISL,ioos:station:DISL:CATA:1,2015-03-04T13:00:00Z,30.3085,-88.1395,2.025,11.21,1111122 
DISL,ioos:station:DISL:CATA:1,2015-03-04T13:30:00Z,30.3085,-88.1395,2.035,11.25,1111122 
DISL,ioos:station:DISL:CATA:1,2015-03-04T14:00:00Z,30.3085,-88.1395,2.039,11.2,1111122 
DISL,ioos:station:DISL:CATA:1,2015-03-04T14:30:00Z,30.3085,-88.1395,2.049,11.17,1111122 
DISL,ioos:station:DISL:CATA:1,2015-03-04T15:00:00Z,30.3085,-88.1395,2.053,11.32,1111122 
DISL,ioos:station:DISL:CATA:1,2015-03-04T15:30:00Z,30.3085,-88.1395,2.06,11.29,1111122 
DISL,ioos:station:DISL:CATA:1,2015-03-04T16:00:00Z,30.3085,-88.1395,2.068,11.3,1111122 
DISL,ioos:station:DISL:CATA:1,2015-03-04T16:30:00Z,30.3085,-88.1395,2.082,11.44,1111122 
DISL,ioos:station:DISL:CATA:1,2015-03-04T17:00:00Z,30.3085,-88.1395,2.097,11.46,1111122 
DISL,ioos:station:DISL:CATA:1,2015-03-04T17:30:00Z,30.3085,-88.1395,2.108,11.42,1111122 
DISL,ioos:station:DISL:CATA:1,2015-03-04T18:00:00Z,30.3085,-88.1395,2.124,11.36,1111122 
DISL,ioos:station:DISL:CATA:1,2015-03-04T18:30:00Z,30.3085,-88.1395,2.138,11.37,1111122 
DISL,ioos:station:DISL:CATA:1,2015-03-04T19:00:00Z,30.3085,-88.1395,2.161,11.32,1111122 
DISL,ioos:station:DISL:CATA:1,2015-03-04T19:30:00Z,30.3085,-88.1395,2.168,11.24,1111122 
DISL,ioos:station:DISL:CATA:1,2015-03-04T20:00:00Z,30.3085,-88.1395,2.179,11.12,1111122 
DISL,ioos:station:DISL:CATA:1,2015-03-04T20:30:00Z,30.3085,-88.1395,2.182,11.04,1111122 
DISL,ioos:station:DISL:CATA:1,2015-03-04T21:00:00Z,30.3085,-88.1395,2.181,11.27,1111122 
DISL,ioos:station:DISL:CATA:1,2015-03-04T21:30:00Z,30.3085,-88.1395,2.189,11.29,1111122 
DISL,ioos:station:DISL:CATA:1,2015-03-04T22:00:00Z,30.3085,-88.1395,2.19,11.11,1111122 
DISL,ioos:station:DISL:CATA:1,2015-03-04T22:30:00Z,30.3085,-88.1395,2.199,11.2,1111122 
DISL,ioos:station:DISL:CATA:1,2015-03-04T23:00:00Z,30.3085,-88.1395,2.211,11.22,1111122 
DISL,ioos:station:DISL:CATA:1,2015-03-04T23:30:00Z,30.3085,-88.1395,2.228,11.23,1111122 
DISL,ioos:station:DISL:CATA:1,2015-03-05T00:00:00Z,30.3085,-88.1395,2.249,11.21,1111122 
DISL,ioos:station:DISL:CATA:1,2015-03-05T00:30:00Z,30.3085,-88.1395,2.26,11.26,1111122 
DISL,ioos:station:DISL:CATA:1,2015-03-05T01:00:00Z,30.3085,-88.1395,2.285,11.24,1111122 
DISL,ioos:station:DISL:CATA:1,2015-03-05T01:30:00Z,30.3085,-88.1395,2.305,11.19,1111122 
DISL,ioos:station:DISL:CATA:1,2015-03-05T02:00:00Z,30.3085,-88.1395,2.321,11.15,1111122 
DISL,ioos:station:DISL:CATA:1,2015-03-05T02:30:00Z,30.3085,-88.1395,2.345,10.93,1111122 
DISL,ioos:station:DISL:CATA:1,2015-03-05T03:00:00Z,30.3085,-88.1395,2.368,10.87,1111122 
DISL,ioos:station:DISL:CATA:1,2015-03-05T03:30:00Z,30.3085,-88.1395,2.365,10.85,1111122 
DISL,ioos:station:DISL:CATA:1,2015-03-05T04:00:00Z,30.3085,-88.1395,2.366,10.77,1111122 
DISL,ioos:station:DISL:CATA:1,2015-03-05T04:30:00Z,30.3085,-88.1395,2.356,10.7,1111122 
DISL,ioos:station:DISL:CATA:1,2015-03-05T05:00:00Z,30.3085,-88.1395,2.353,10.64,1111122 
DISL,ioos:station:DISL:CATA:1,2015-03-05T05:30:00Z,30.3085,-88.1395,2.348,10.33,1111122 
DISL,ioos:station:DISL:CATA:1,2015-03-05T06:00:00Z,30.3085,-88.1395,2.343,9.83,1111122 
DISL,ioos:station:DISL:CATA:1,2015-03-05T06:30:00Z,30.3085,-88.1395,2.343,9.27,1111122 
DISL,ioos:station:DISL:CATA:1,2015-03-05T07:00:00Z,30.3085,-88.1395,2.327,9.06,1111122 
DISL,ioos:station:DISL:CATA:1,2015-03-05T07:30:00Z,30.3085,-88.1395,2.3,8.84,1111122 
DISL,ioos:station:DISL:CATA:1,2015-03-05T08:00:00Z,30.3085,-88.1395,2.27,8.26,1111122 
DISL,ioos:station:DISL:CATA:1,2015-03-05T08:30:00Z,30.3085,-88.1395,2.235,9.43,1111122 
DISL,ioos:station:DISL:CATA:1,2015-03-05T09:00:00Z,30.3085,-88.1395,2.217,10.18,1111122 
DISL,ioos:station:DISL:CATA:1,2015-03-05T09:30:00Z,30.3085,-88.1395,2.197,10.61,1111122 
DISL,ioos:station:DISL:CATA:1,2015-03-05T10:00:00Z,30.3085,-88.1395,2.164,10.59,1111122 
DISL,ioos:station:DISL:CATA:1,2015-03-05T10:30:00Z,30.3085,-88.1395,2.134,10.58,1111122 
DISL,ioos:station:DISL:CATA:1,2015-03-05T11:00:00Z,30.3085,-88.1395,2.107,10.54,1111122 
DISL,ioos:station:DISL:CATA:1,2015-03-05T11:30:00Z,30.3085,-88.1395,2.083,10.62,1111122 
DISL,ioos:station:DISL:CATA:1,2015-03-05T12:00:00Z,30.3085,-88.1395,2.079,10.57,1111122 
DISL,ioos:station:DISL:CATA:1,2015-03-05T12:30:00Z,30.3085,-88.1395,2.083,10.58,1111122 
DISL,ioos:station:DISL:CATA:1,2015-03-05T13:00:00Z,30.3085,-88.1395,2.106,10.6,1111122 
DISL,ioos:station:DISL:CATA:1,2015-03-05T13:30:00Z,30.3085,-88.1395,2.103,10.6,1111122 
DISL,ioos:station:DISL:CATA:1,2015-03-05T14:00:00Z,30.3085,-88.1395,2.11,10.56,1111122 
DISL,ioos:station:DISL:CATA:1,2015-03-05T14:30:00Z,30.3085,-88.1395,2.128,10.6,1111122 
DISL,ioos:station:DISL:CATA:1,2015-03-05T15:00:00Z,30.3085,-88.1395,2.135,10.42,1111122 
DISL,ioos:station:DISL:CATA:1,2015-03-05T15:30:00Z,30.3085,-88.1395,2.282,10.28,1111122 
DISL,ioos:station:DISL:CATA:1,2015-03-05T16:00:00Z,30.3085,-88.1395,2.2,10.0,1111122 
DISL,ioos:station:DISL:CATA:1,2015-03-05T16:30:00Z,30.3085,-88.1395,2.073,9.65,1111122 
DISL,ioos:station:DISL:CATA:1,2015-03-05T17:00:00Z,30.3085,-88.1395,1.957,10.4,1111122 
DISL,ioos:station:DISL:CATA:1,2015-03-05T17:30:00Z,30.3085,-88.1395,1.937,10.21,1111122 
DISL,ioos:station:DISL:CATA:1,2015-03-05T18:00:00Z,30.3085,-88.1395,1.922,10.0,1111122 
DISL,ioos:station:DISL:CATA:1,2015-03-05T18:30:00Z,30.3085,-88.1395,1.831,9.96,1111122 
DISL,ioos:station:DISL:CATA:1,2015-03-05T19:00:00Z,30.3085,-88.1395,1.827,9.93,1111122 
DISL,ioos:station:DISL:CATA:1,2015-03-05T19:30:00Z,30.3085,-88.1395,1.816,10.0,1111122 
DISL,ioos:station:DISL:CATA:1,2015-03-05T20:00:00Z,30.3085,-88.1395,1.827,10.01,1111122 
DISL,ioos:station:DISL:CATA:1,2015-03-05T20:30:00Z,30.3085,-88.1395,1.9,10.03,1111122 
DISL,ioos:station:DISL:CATA:1,2015-03-05T21:00:00Z,30.3085,-88.1395,1.961,10.04,1111122 
DISL,ioos:station:DISL:CATA:1,2015-03-05T21:30:00Z,30.3085,-88.1395,1.945,10.02,1111122 
DISL,ioos:station:DISL:CATA:1,2015-03-05T22:00:00Z,30.3085,-88.1395,1.908,9.85,1111122 
DISL,ioos:station:DISL:CATA:1,2015-03-05T22:30:00Z,30.3085,-88.1395,1.839,10.17,1111122 
DISL,ioos:station:DISL:CATA:1,2015-03-05T23:00:00Z,30.3085,-88.1395,1.835,10.02,1111122 
DISL,ioos:station:DISL:CATA:1,2015-03-05T23:30:00Z,30.3085,-88.1395,1.805,10.04,1111122 
DISL,ioos:station:DISL:CATA:1,2015-03-06T00:00:00Z,30.3085,-88.1395,1.781,9.9,1111122 
DISL,ioos:station:DISL:CATA:1,2015-03-06T00:30:00Z,30.3085,-88.1395,1.765,9.87,1111122 
DISL,ioos:station:DISL:CATA:1,2015-03-06T01:00:00Z,30.3085,-88.1395,1.752,9.92,1111122 
DISL,ioos:station:DISL:CATA:1,2015-03-06T01:30:00Z,30.3085,-88.1395,1.755,9.94,1111122 
DISL,ioos:station:DISL:CATA:1,2015-03-06T02:00:00Z,30.3085,-88.1395,1.784,9.87,1111122 
DISL,ioos:station:DISL:CATA:1,2015-03-06T02:30:00Z,30.3085,-88.1395,1.8,9.84,1111122 
DISL,ioos:station:DISL:CATA:1,2015-03-06T03:00:00Z,30.3085,-88.1395,1.806,9.79,1111122 
DISL,ioos:station:DISL:CATA:1,2015-03-06T03:30:00Z,30.3085,-88.1395,1.8,9.76,1111122 
DISL,ioos:station:DISL:CATA:1,2015-03-06T04:00:00Z,30.3085,-88.1395,1.803,9.73,1111122 
DISL,ioos:station:DISL:CATA:1,2015-03-06T04:30:00Z,30.3085,-88.1395,1.833,9.65,1111122 
DISL,ioos:station:DISL:CATA:1,2015-03-06T05:00:00Z,30.3085,-88.1395,1.846,9.76,1111122 
DISL,ioos:station:DISL:CATA:1,2015-03-06T05:30:00Z,30.3085,-88.1395,1.852,10.07,1111122 
DISL,ioos:station:DISL:CATA:1,2015-03-06T06:00:00Z,30.3085,-88.1395,1.864,10.02,1111122 
DISL,ioos:station:DISL:CATA:1,2015-03-06T06:30:00Z,30.3085,-88.1395,1.871,9.86,1111122 
DISL,ioos:station:DISL:CATA:1,2015-03-06T07:00:00Z,30.3085,-88.1395,1.858,9.79,1111122 
DISL,ioos:station:DISL:CATA:1,2015-03-06T07:30:00Z,30.3085,-88.1395,1.85,9.82,1111122 
DISL,ioos:station:DISL:CATA:1,2015-03-06T08:00:00Z,30.3085,-88.1395,1.839,9.91,1111122 
DISL,ioos:station:DISL:CATA:1,2015-03-06T08:30:00Z,30.3085,-88.1395,1.813,9.85,1111122 
DISL,ioos:station:DISL:CATA:1,2015-03-06T09:00:00Z,30.3085,-88.1395,1.795,10.34,1111122 
DISL,ioos:station:DISL:CATA:1,2015-03-06T09:30:00Z,30.3085,-88.1395,1.808,10.08,1111122 
DISL,ioos:station:DISL:CATA:1,2015-03-06T10:00:00Z,30.3085,-88.1395,1.8,9.91,1111122 
DISL,ioos:station:DISL:CATA:1,2015-03-06T10:30:00Z,30.3085,-88.1395,1.784,9.84,1111122 
DISL,ioos:station:DISL:CATA:1,2015-03-06T11:00:00Z,30.3085,-88.1395,1.765,9.84,1111122 
DISL,ioos:station:DISL:CATA:1,2015-03-06T11:30:00Z,30.3085,-88.1395,1.781,9.81,1111122 
DISL,ioos:station:DISL:CATA:1,2015-03-06T12:00:00Z,30.3085,-88.1395,1.792,9.84,1111122 
DISL,ioos:station:DISL:CATA:1,2015-03-06T12:30:00Z,30.3085,-88.1395,1.814,9.82,1111122 
DISL,ioos:station:DISL:CATA:1,2015-03-06T13:00:00Z,30.3085,-88.1395,1.837,9.79,1111122 
DISL,ioos:station:DISL:CATA:1,2015-03-06T13:30:00Z,30.3085,-88.1395,1.862,9.79,1111122 
DISL,ioos:station:DISL:CATA:1,2015-03-06T14:00:00Z,30.3085,-88.1395,1.884,9.6,1111122 
DISL,ioos:station:DISL:CATA:1,2015-03-06T14:30:00Z,30.3085,-88.1395,1.895,9.64,1111122 